Dixon AP, Dixon, WY, WY

10:12 AM MDT on July 27, 2017 (GMT -0600)
Dixon AP, Dixon, WY

Weather History for KDWX - March, 2014

Change the Weather History Date:

Tuesday, March 11, 2014

  Actual Average (KCAG) Record (KCAG)
Temperature  
Mean Temperature 28 °F -  
Max Temperature 38 °F 40 °F 59 °F (2015)
Min Temperature 15 °F 15 °F -2 °F (2006)
Degree Days  
Heating Degree Days 38    
Moisture  
Dew Point 21 °F    
Average Humidity 74    
Maximum Humidity 95    
Minimum Humidity 52    
Precipitation  
Precipitation 0.00 in - - ()
Sea Level Pressure  
Sea Level Pressure 30.11 in    
Wind  
Wind Speed 13 mph (North)    
Max Wind Speed 32 mph    
Max Gust Speed 40 mph    
Visibility 8 miles    
Events Snow    
Averages and records for this station are not official NWS values.
T = Trace of Precipitation, MM = Missing Value Source: NWS Daily Summary

Daily Weather History Graph

Daily Weather History Graph

Search for Another Location

Airport or City:

Trip Planner

Search our weather history database for the weather conditions in past years. The results will help you decide how hot, cold, wet, or windy it might be!

Date:

Astronomy

Mar. 11, 2014 Rise Set
Actual Time 7:28 AM MDT 7:12 PM MDT
Civil Twilight 7:00 AM MDT 7:39 PM MDT
Nautical Twilight 6:28 AM MDT 8:11 PM MDT
Astronomical Twilight 5:56 AM MDT 8:43 PM MDT
Moon 2:49 PM MDT (3/11) 4:25 AM MDT (3/11)
Length of Visible Light 12h 39m
Length of Day
11h 44m
Waxing Gibbous, 78% of the Moon is Illuminated
Mar 11
Waxing Gibbous
Mar 16
Full
Mar 23
Last Quarter
Mar 30
New
Apr 7
First Quarter

Hourly Weather History & Observations

Time (MDT) Temp. Windchill Dew Point Humidity Pressure Visibility Wind Dir Wind Speed Gust Speed Precip Events Conditions
12:15 AM 39.7 °F 32.3 °F 28.4 °F 64% 29.89 in 10.0 mi NW 12.7 mph - N/A   Overcast
12:35 AM 38.8 °F 30.8 °F 28.4 °F 66% 29.88 in 10.0 mi WNW 13.8 mph - N/A   Overcast
12:55 AM 38.3 °F 31.4 °F 29.3 °F 70% 29.88 in 10.0 mi West 10.4 mph 20.7 mph N/A   Overcast
1:15 AM 36.7 °F 27.2 °F 31.1 °F 80% 29.88 in 4.0 mi West 16.1 mph 35.7 mph N/A Snow Light Snow
1:35 AM 34.0 °F 23.8 °F 31.6 °F 91% 29.89 in 2.0 mi WNW 16.1 mph 24.2 mph N/A Snow Light Snow
1:55 AM 34.0 °F 28.8 °F 31.3 °F 90% 29.89 in 5.0 mi West 5.8 mph - N/A Snow Light Snow
2:15 AM 34.3 °F 29.2 °F 30.6 °F 86% 29.89 in 10.0 mi SSW 5.8 mph - N/A   Overcast
2:35 AM 33.1 °F 26.9 °F 31.8 °F 95% 29.88 in 7.0 mi South 6.9 mph - N/A Snow Light Snow
2:55 AM 33.8 °F 27.7 °F 30.9 °F 89% 29.89 in 10.0 mi WSW 6.9 mph - N/A Snow Light Snow
3:15 AM 32.5 °F 22.7 °F 30.2 °F 91% 29.89 in 1.0 mi West 13.8 mph 18.4 mph N/A Snow Light Snow
3:35 AM 32.0 °F 24.8 °F 30.6 °F 94% 29.89 in 2.0 mi WSW 8.1 mph - N/A Snow Light Snow
3:55 AM 31.8 °F 24.6 °F 30.0 °F 93% 29.88 in 1.5 mi West 8.1 mph - N/A Snow Light Snow
4:15 AM 32.0 °F 20.5 °F 27.3 °F 83% 29.88 in 3.0 mi West 18.4 mph 33.4 mph N/A Snow Light Snow
4:35 AM 32.0 °F 20.5 °F 26.4 °F 80% 29.88 in 10.0 mi WNW 18.4 mph 21.9 mph N/A   Overcast
4:55 AM 31.8 °F 22.3 °F 25.3 °F 77% 29.89 in 10.0 mi West 12.7 mph - N/A   Overcast
5:15 AM 31.1 °F 25.4 °F 25.0 °F 78% 29.90 in 10.0 mi WSW 5.8 mph 11.5 mph N/A   Overcast
5:35 AM 30.7 °F 20.9 °F 23.9 °F 76% 29.92 in 10.0 mi West 12.7 mph - N/A   Overcast
5:55 AM 30.2 °F 19.3 °F 23.5 °F 76% 29.92 in 10.0 mi WSW 15.0 mph 18.4 mph N/A   Overcast
6:15 AM 30.2 °F 20.2 °F 23.5 °F 76% 29.93 in 10.0 mi West 12.7 mph - N/A   Overcast
6:35 AM 30.0 °F 21.1 °F 23.7 °F 77% 29.93 in 10.0 mi West 10.4 mph - N/A   Overcast
6:55 AM 29.8 °F 21.5 °F 23.5 °F 77% 29.94 in 10.0 mi West 9.2 mph - N/A Snow Light Snow
7:15 AM 28.4 °F 20.4 °F 25.5 °F 89% 29.95 in 1.5 mi WSW 8.1 mph - N/A Snow Light Snow
7:35 AM 28.0 °F 19.3 °F 25.9 °F 92% 29.95 in 0.8 mi West 9.2 mph - N/A Snow Snow
7:55 AM 27.7 °F 18.8 °F 26.4 °F 95% 29.96 in 0.2 mi WSW 9.2 mph - N/A Snow Heavy Snow
8:15 AM 27.7 °F 21.3 °F 26.4 °F 95% 29.96 in 0.2 mi SW 5.8 mph - N/A Snow Heavy Snow
8:35 AM 27.9 °F 18.4 °F 26.4 °F 94% 29.96 in 2.5 mi West 10.4 mph - N/A Snow Light Snow
8:55 AM 29.7 °F 19.6 °F 26.1 °F 86% 29.96 in 3.0 mi WNW 12.7 mph - N/A Snow Light Snow
9:15 AM 31.1 °F 19.3 °F 24.6 °F 77% 29.98 in 7.0 mi North 18.4 mph 23.0 mph N/A Snow Light Snow
9:35 AM 30.4 °F 20.0 °F 23.4 °F 75% 30.01 in 10.0 mi North 13.8 mph - N/A   Overcast
9:55 AM 30.9 °F 22.2 °F 23.2 °F 73% 30.02 in 10.0 mi North 10.4 mph - N/A   Overcast
10:15 AM 31.1 °F 21.4 °F 22.8 °F 71% 30.05 in 10.0 mi North 12.7 mph - N/A   Overcast
10:35 AM 30.7 °F 20.9 °F 21.9 °F 70% 30.07 in 10.0 mi North 12.7 mph 18.4 mph N/A   Overcast
10:55 AM 31.1 °F 21.4 °F 22.3 °F 70% 30.09 in 10.0 mi North 12.7 mph - N/A   Overcast
11:15 AM 30.7 °F 20.0 °F 22.8 °F 72% 30.10 in 5.0 mi North 15.0 mph 23.0 mph N/A Snow Light Snow
11:35 AM 30.0 °F 17.9 °F 22.3 °F 73% 30.12 in 5.0 mi North 18.4 mph 25.3 mph N/A   Haze
11:55 AM 30.9 °F 19.4 °F 21.7 °F 69% 30.13 in 10.0 mi NNE 17.3 mph 21.9 mph N/A   Overcast
12:15 PM 30.7 °F 18.5 °F 21.6 °F 69% 30.14 in 7.0 mi NNE 19.6 mph 31.1 mph N/A   Overcast
12:35 PM 30.9 °F 18.1 °F 21.7 °F 69% 30.14 in 7.0 mi NNE 21.9 mph 34.5 mph N/A   Overcast
12:55 PM 30.6 °F 19.4 °F 21.0 °F 68% 30.15 in 10.0 mi North 16.1 mph 32.2 mph N/A   Overcast
1:15 PM 30.9 °F 17.8 °F 21.4 °F 68% 30.17 in 10.0 mi NNE 23.0 mph 29.9 mph N/A   Overcast
1:35 PM 31.3 °F 17.1 °F 21.6 °F 67% 30.18 in 7.0 mi NNE 27.6 mph 35.7 mph N/A   Mostly Cloudy
1:55 PM 30.0 °F 14.5 °F 20.7 °F 68% 30.18 in 4.0 mi NNE 32.2 mph 40.3 mph N/A   Haze
2:15 PM 30.4 °F 16.2 °F 20.7 °F 67% 30.18 in 4.0 mi NNE 26.5 mph 38.0 mph N/A   Haze
2:35 PM 32.0 °F 18.4 °F 21.4 °F 65% 30.19 in 5.0 mi NNE 26.5 mph 35.7 mph N/A   Haze
2:55 PM 30.0 °F 14.9 °F 20.1 °F 67% 30.20 in 7.0 mi NNE 29.9 mph 38.0 mph N/A   Overcast
3:15 PM 30.6 °F 15.7 °F 20.5 °F 66% 30.21 in 10.0 mi NNE 29.9 mph 36.8 mph N/A   Overcast
3:35 PM 30.4 °F 15.7 °F 20.5 °F 67% 30.22 in 10.0 mi NNE 28.8 mph 35.7 mph N/A   Overcast
3:55 PM 32.0 °F 18.4 °F 21.0 °F 64% 30.23 in 10.0 mi NNE 26.5 mph 32.2 mph N/A   Mostly Cloudy
4:15 PM 32.0 °F 18.1 °F 20.3 °F 62% 30.24 in 10.0 mi NNE 27.6 mph 32.2 mph N/A   Scattered Clouds
4:35 PM 32.0 °F 19.5 °F 20.3 °F 62% 30.25 in 10.0 mi NNE 21.9 mph 29.9 mph N/A   Scattered Clouds
4:55 PM 31.8 °F 18.7 °F 19.8 °F 61% 30.26 in 10.0 mi NNE 24.2 mph 29.9 mph N/A   Mostly Cloudy
5:15 PM 31.5 °F 18.8 °F 18.7 °F 59% 30.27 in 10.0 mi NE 21.9 mph 27.6 mph N/A   Scattered Clouds
5:35 PM 31.1 °F 18.3 °F 17.1 °F 56% 30.27 in 10.0 mi NE 21.9 mph 31.1 mph N/A   Scattered Clouds
5:55 PM 31.1 °F 20.1 °F 16.2 °F 54% 30.29 in 10.0 mi NE 16.1 mph 23.0 mph N/A   Clear
6:15 PM 30.2 °F 18.9 °F 14.5 °F 52% 30.29 in 10.0 mi NE 16.1 mph - N/A   Scattered Clouds
6:35 PM 29.3 °F 17.7 °F 14.2 °F 53% 30.30 in 10.0 mi NE 16.1 mph 26.5 mph N/A   Clear
6:55 PM 28.8 °F 19.5 °F 15.6 °F 58% 30.30 in 10.0 mi NE 10.4 mph - N/A   Clear
7:15 PM 26.6 °F 18.2 °F 15.1 °F 62% 30.32 in 10.0 mi NNE 8.1 mph - N/A   Clear
7:35 PM 25.3 °F 21.1 °F 14.5 °F 64% 30.33 in 10.0 mi ENE 3.5 mph - N/A   Clear
7:55 PM 24.4 °F - 14.2 °F 65% 30.33 in 10.0 mi Calm Calm - N/A   Clear
8:15 PM 20.8 °F 12.1 °F 14.0 °F 75% 30.34 in 10.0 mi North 6.9 mph - N/A   Clear
8:35 PM 21.2 °F 10.9 °F 14.0 °F 74% 30.34 in 10.0 mi NE 9.2 mph - N/A   Clear
8:55 PM 21.0 °F 9.3 °F 13.5 °F 73% 30.35 in 10.0 mi North 11.5 mph - N/A   Clear
9:15 PM 21.7 °F 13.2 °F 13.5 °F 70% 30.35 in 10.0 mi ENE 6.9 mph - N/A   Clear
9:35 PM 20.1 °F 12.3 °F 12.7 °F 73% 30.35 in 10.0 mi East 5.8 mph - N/A   Clear
9:55 PM 20.1 °F 11.3 °F 11.7 °F 70% 30.35 in 10.0 mi NNE 6.9 mph - N/A   Clear
10:15 PM 19.0 °F 12.3 °F 11.8 °F 74% 30.35 in 10.0 mi NE 4.6 mph - N/A   Clear
10:35 PM 18.0 °F 8.7 °F 11.8 °F 77% 30.36 in 10.0 mi NE 6.9 mph - N/A   Clear
10:55 PM 16.5 °F 5.1 °F 10.9 °F 79% 30.36 in 10.0 mi NE 9.2 mph - N/A   Clear
11:15 PM 16.5 °F 4.3 °F 10.9 °F 79% 30.36 in 10.0 mi NE 10.4 mph - N/A   Clear
11:35 PM 17.1 °F 7.6 °F 10.4 °F 75% 30.36 in 10.0 mi ENE 6.9 mph - N/A   Clear
11:55 PM 15.6 °F - 9.5 °F 77% 30.37 in 10.0 mi Calm Calm - N/A   Clear